Location: Acton
(51.4942°N, 0.2232°W)
Time: 13:39:16
(UTC+00:00)

Okean 1-7 Rocket - Pass Details

Date: 22 January 2021
Orbit: 615 x 650 km, 82.5° (Epoch: 28 February)

Event Time Altitude Azimuth Distance (km) Brightness Sun altitude
Exits shadow 04:08:42 25° 81° (E) 1,314 5.7 -34.4°
Drops below altitude 10° 04:11:49 10° 124° (SE) 2,031 6.7 -33.9°
Sets 04:14:22 0° 137° (SE) 2,929 7.4 -33.5°
